Location: Home AU
(51.1382°N, 13.5726°E)
Time: 04:29:34
(UTC+01:00)

ISS - Pass Details

Date: 07 January 2018
Orbit: 401 x 406 km, 51.6° (Epoch: 17 January)

Event Time Altitude Azimuth Distance (km) Brightness Sun altitude
Exits shadow 05:58:09 79° 333° (NNW) 419 -4.0 -19.3°
Maximum altitude 05:58:15 80° 4° (N) 417 -3.9 -19.3°
Drops below altitude 10° 06:01:32 10° 91° (E) 1,467 0.2 -18.8°
Sets 06:03:37 0° 92° (E) 2,328 1.6 -18.5°
